THA602 ZSPD-RKSI

Flight info

Callsign THA602
Flight time N/A
Altitude 35000
Route LAM84D LAMEN A593 SADLI Y590 ELGEP Y722 OLMEN OLMEN2H
Aircraft A21N/M-SDE2E3FGHIRWXY/LB1

Departure

Time 2026-05-05 13:47
Airport Shanghai Pudong International Airport (ZSPD)

Arrival

Time N/A
Airport Incheon International Airport (RKSI)
Time Latitude Longitude Altitude Speed Heading
2026-05-05 13:22 31.15496 121.80656 14 ft 0 kts 252°
2026-05-05 13:25 31.15410 121.80688 14 ft 0 kts 252°
2026-05-05 13:32 31.15413 121.80698 14 ft 2 kts 251°
2026-05-05 13:33 31.15418 121.80717 15 ft 2 kts 253°
2026-05-05 13:33 31.15422 121.80735 17 ft 2 kts 254°
2026-05-05 13:33 31.15427 121.80754 17 ft 2 kts 256°
2026-05-05 13:33 31.15430 121.80772 15 ft 2 kts 259°
2026-05-05 13:34 31.15432 121.80791 15 ft 2 kts 267°
2026-05-05 13:34 31.15431 121.80810 14 ft 2 kts 301°
2026-05-05 13:34 31.15421 121.80820 14 ft 1 kts 338°
2026-05-05 13:34 31.15420 121.80821 17 ft 0 kts 339°
2026-05-05 13:38 31.15420 121.80820 14 ft 0 kts 339°
2026-05-05 13:38 31.15422 121.80820 14 ft 0 kts 339°
2026-05-05 13:38 31.15430 121.80816 14 ft 2 kts 339°
2026-05-05 13:39 31.15455 121.80805 14 ft 11 kts 341°
2026-05-05 13:39 31.15528 121.80778 14 ft 11 kts 343°
2026-05-05 13:39 31.15601 121.80753 14 ft 11 kts 343°
2026-05-05 13:39 31.15661 121.80748 14 ft 5 kts 41°
2026-05-05 13:40 31.15678 121.80781 14 ft 4 kts 65°
2026-05-05 13:40 31.15687 121.80813 14 ft 5 kts 71°
2026-05-05 13:40 31.15698 121.80853 14 ft 5 kts 71°
2026-05-05 13:40 31.15710 121.80894 14 ft 6 kts 71°
2026-05-05 13:41 31.15723 121.80937 14 ft 6 kts 71°
2026-05-05 13:41 31.15735 121.80983 14 ft 6 kts 72°
2026-05-05 13:41 31.15740 121.80999 16 ft 0 kts 72°
2026-05-05 13:41 31.15740 121.81000 16 ft 0 kts 72°
2026-05-05 13:42 31.15741 121.81003 15 ft 1 kts 72°
2026-05-05 13:42 31.15747 121.81023 14 ft 4 kts 72°
2026-05-05 13:42 31.15760 121.81070 14 ft 5 kts 71°
2026-05-05 13:42 31.15760 121.81071 14 ft 0 kts 71°
2026-05-05 13:44 31.15762 121.81079 14 ft 3 kts 71°
2026-05-05 13:44 31.15778 121.81134 14 ft 18 kts 77°
2026-05-05 13:45 31.15743 121.81230 13 ft 10 kts 159°
2026-05-05 13:45 31.15704 121.81246 13 ft 0 kts 161°
2026-05-05 13:45 31.15701 121.81247 15 ft 1 kts 161°
2026-05-05 13:45 31.15694 121.81250 14 ft 1 kts 161°
2026-05-05 13:46 31.15693 121.81251 13 ft 0 kts 161°
2026-05-05 13:46 31.15640 121.81271 14 ft 33 kts 161°
2026-05-05 13:46 31.15205 121.81437 15 ft 95 kts 162°
2026-05-05 13:47 31.14394 121.81731 15 ft 151 kts 163°
2026-05-05 13:47 31.13297 121.82103 273 ft 166 kts 165°
2026-05-05 13:47 31.12168 121.82459 602 ft 179 kts 166°
2026-05-05 13:47 31.10885 121.82945 783 ft 202 kts 159°
2026-05-05 13:48 31.09607 121.83749 1084 ft 220 kts 151°
2026-05-05 13:48 31.08314 121.84740 1419 ft 221 kts 148°
2026-05-05 13:48 31.07046 121.85834 1966 ft 233 kts 147°
2026-05-05 13:48 31.05714 121.86977 2506 ft 243 kts 146°
2026-05-05 13:49 31.04336 121.88159 3081 ft 248 kts 146°
2026-05-05 13:49 31.02910 121.89314 3604 ft 252 kts 147°
2026-05-05 13:49 31.01450 121.90484 4129 ft 257 kts 143°
2026-05-05 13:49 31.00081 121.91836 4640 ft 260 kts 139°
2026-05-05 13:50 30.98734 121.93274 5172 ft 264 kts 138°
2026-05-05 13:50 30.97364 121.94747 5584 ft 276 kts 138°
2026-05-05 13:50 30.95932 121.96280 6166 ft 286 kts 138°
2026-05-05 13:50 30.94471 121.97982 6458 ft 308 kts 128°
2026-05-05 13:51 30.93579 122.00299 6894 ft 321 kts 98°
2026-05-05 13:51 30.93758 122.02840 7915 ft 312 kts 75°
2026-05-05 13:51 30.94388 122.05205 9081 ft 300 kts 71°
2026-05-05 13:51 30.95060 122.07484 10123 ft 296 kts 71°
2026-05-05 13:52 30.95737 122.09790 10627 ft 309 kts 71°
2026-05-05 13:52 30.96444 122.12251 10893 ft 330 kts 72°
2026-05-05 13:52 30.97182 122.14863 11154 ft 350 kts 72°
2026-05-05 13:52 30.97956 122.17630 11405 ft 368 kts 72°
2026-05-05 13:53 30.98763 122.20530 11644 ft 384 kts 72°
2026-05-05 13:53 30.99574 122.23546 11971 ft 395 kts 75°
2026-05-05 13:53 30.99985 122.26692 12329 ft 402 kts 87°
2026-05-05 13:53 31.00047 122.29969 12829 ft 406 kts 90°
2026-05-05 13:54 31.00040 122.33274 13327 ft 410 kts 90°
2026-05-05 13:54 31.00026 122.36622 13707 ft 416 kts 90°
2026-05-05 13:54 31.00015 122.40001 14243 ft 416 kts 90°
2026-05-05 13:54 31.00010 122.43395 14670 ft 421 kts 90°
2026-05-05 13:55 31.00012 122.46816 15092 ft 424 kts 90°
2026-05-05 13:55 31.00017 122.50258 15627 ft 425 kts 89°
2026-05-05 13:55 31.00022 122.53724 16004 ft 430 kts 89°
2026-05-05 13:55 31.00026 122.57223 16476 ft 432 kts 89°
2026-05-05 13:56 31.00029 122.60728 16934 ft 434 kts 89°
2026-05-05 13:56 31.00032 122.64270 17290 ft 439 kts 89°
2026-05-05 13:56 31.00033 122.67838 17737 ft 441 kts 89°
2026-05-05 13:56 31.00034 122.71423 18131 ft 445 kts 89°
2026-05-05 13:57 31.00033 122.75036 18531 ft 447 kts 89°
2026-05-05 13:57 31.00032 122.78668 18914 ft 449 kts 89°
2026-05-05 13:57 31.00029 122.82320 19269 ft 452 kts 90°
2026-05-05 13:57 31.00025 122.85987 19678 ft 454 kts 90°
2026-05-05 13:58 31.00021 122.89688 20045 ft 457 kts 90°
2026-05-05 13:58 31.00037 122.93348 20445 ft 458 kts 87°
2026-05-05 13:58 31.00350 122.97048 20840 ft 460 kts 79°
2026-05-05 13:58 31.01188 123.00654 21192 ft 462 kts 68°
2026-05-05 13:59 31.04346 123.07162 21967 ft 464 kts 53°
2026-05-05 13:59 31.06232 123.10231 22329 ft 466 kts 52°
2026-05-05 14:00 31.10053 123.16407 22989 ft 473 kts 52°
2026-05-05 14:00 31.11324 123.18472 23186 ft 475 kts 53°
2026-05-05 14:00 31.13909 123.22686 23649 ft 478 kts 53°
2026-05-05 14:00 31.15849 123.25858 23919 ft 481 kts 53°
2026-05-05 14:01 31.17799 123.29049 24157 ft 484 kts 53°
2026-05-05 14:01 31.19764 123.32269 24415 ft 487 kts 53°
2026-05-05 14:01 31.21739 123.35509 24656 ft 490 kts 53°
2026-05-05 14:01 31.23721 123.38764 24904 ft 493 kts 53°
2026-05-05 14:02 31.25507 123.41614 25223 ft 494 kts 53°
2026-05-05 14:02 31.27497 123.44892 25499 ft 496 kts 53°
2026-05-05 14:02 31.29458 123.48150 25809 ft 497 kts 53°
2026-05-05 14:02 31.31475 123.51495 26151 ft 497 kts 53°
2026-05-05 14:03 31.33453 123.54765 26466 ft 498 kts 53°
2026-05-05 14:03 31.35466 123.58065 26780 ft 499 kts 53°
2026-05-05 14:03 31.37486 123.61366 27087 ft 500 kts 53°
2026-05-05 14:03 31.39511 123.64678 27378 ft 501 kts 53°
2026-05-05 14:04 31.41537 123.67993 27765 ft 499 kts 53°
2026-05-05 14:04 31.43557 123.71301 28040 ft 500 kts 53°
2026-05-05 14:04 31.47628 123.77974 28467 ft 504 kts 53°
2026-05-05 14:05 31.49662 123.81314 28763 ft 504 kts 53°
2026-05-05 14:05 31.51704 123.84669 29042 ft 505 kts 53°
2026-05-05 14:05 31.53055 123.86891 29236 ft 505 kts 53°
2026-05-05 14:05 31.55785 123.91385 29614 ft 506 kts 53°
2026-05-05 14:06 31.57137 123.93612 29794 ft 507 kts 53°
2026-05-05 14:06 31.59159 123.96997 30006 ft 509 kts 57°
2026-05-05 14:06 31.60875 124.00659 30079 ft 514 kts 68°
2026-05-05 14:06 31.62065 124.04597 30332 ft 513 kts 74°
2026-05-05 14:07 31.63065 124.08618 30597 ft 512 kts 76°
2026-05-05 14:07 31.63974 124.12652 30837 ft 512 kts 77°
2026-05-05 14:07 31.64847 124.16710 31054 ft 512 kts 78°
2026-05-05 14:07 31.65708 124.20750 31274 ft 513 kts 78°
2026-05-05 14:08 31.66582 124.24825 31378 ft 516 kts 78°
2026-05-05 14:08 31.67471 124.28926 31525 ft 518 kts 77°
2026-05-05 14:08 31.68367 124.33015 31879 ft 515 kts 77°
2026-05-05 14:08 31.69263 124.37079 32139 ft 514 kts 77°
2026-05-05 14:09 31.70162 124.41150 32315 ft 516 kts 77°
2026-05-05 14:09 31.71064 124.45231 32502 ft 516 kts 77°
2026-05-05 14:09 31.71964 124.49309 32645 ft 518 kts 78°
2026-05-05 14:09 31.72869 124.53425 32675 ft 522 kts 78°
2026-05-05 14:10 31.73776 124.57556 32840 ft 522 kts 78°
2026-05-05 14:10 31.74683 124.61690 33072 ft 522 kts 78°
2026-05-05 14:10 31.75586 124.65813 33251 ft 522 kts 78°
2026-05-05 14:10 31.76489 124.69948 33419 ft 522 kts 78°
2026-05-05 14:11 31.77391 124.74086 33635 ft 521 kts 78°
2026-05-05 14:11 31.78292 124.78222 33719 ft 524 kts 78°
2026-05-05 14:11 31.80084 124.86482 33970 ft 526 kts 78°
2026-05-05 14:12 31.80988 124.90652 34143 ft 526 kts 78°
2026-05-05 14:12 31.81884 124.94824 34279 ft 525 kts 80°
2026-05-05 14:12 31.82416 124.99042 34380 ft 520 kts 92°
2026-05-05 14:12 31.82325 125.03262 34380 ft 514 kts 103°
2026-05-05 14:13 31.81240 125.11573 34549 ft 512 kts 107°
2026-05-05 14:13 31.80566 125.15671 34685 ft 511 kts 108°
2026-05-05 14:13 31.79865 125.19765 34827 ft 510 kts 108°
2026-05-05 14:14 31.79161 125.23843 34935 ft 510 kts 108°
2026-05-05 14:14 31.78462 125.27934 34981 ft 512 kts 108°
2026-05-05 14:14 31.77073 125.36183 35103 ft 515 kts 108°
2026-05-05 14:15 31.75703 125.44445 35143 ft 515 kts 108°
2026-05-05 14:15 31.74336 125.52700 35136 ft 514 kts 108°
2026-05-05 14:16 31.72976 125.60894 35146 ft 516 kts 106°
2026-05-05 14:16 31.72624 125.65111 35147 ft 524 kts 95°
2026-05-05 14:16 31.72912 125.69410 35153 ft 531 kts 83°
2026-05-05 14:17 31.74499 125.77913 35138 ft 535 kts 79°
2026-05-05 14:17 31.75444 125.82154 35147 ft 539 kts 77°
2026-05-05 14:18 31.76273 125.85096 35143 ft 543 kts 69°
2026-05-05 14:18 31.76699 125.86264 35145 ft 543 kts 65°
2026-05-05 14:19 31.78593 125.90101 35145 ft 543 kts 52°
2026-05-05 14:19 31.81092 125.93394 35145 ft 538 kts 37°
2026-05-05 14:19 31.84084 125.95955 35173 ft 528 kts 23°
2026-05-05 14:19 31.87369 125.97767 35155 ft 519 kts 16°
2026-05-05 14:20 31.94109 126.00752 35148 ft 517 kts 12°
2026-05-05 14:20 32.00910 126.03519 35150 ft 517 kts 12°
2026-05-05 14:21 32.07442 126.06214 35152 ft 515 kts 13°
2026-05-05 14:21 32.14189 126.09051 35152 ft 514 kts 13°
2026-05-05 14:22 32.20920 126.11904 35145 ft 514 kts 13°
2026-05-05 14:22 32.27629 126.14758 35151 ft 511 kts 13°
2026-05-05 14:23 32.34315 126.17605 35151 ft 510 kts 13°
2026-05-05 14:23 32.40994 126.20450 35175 ft 510 kts 14°
2026-05-05 14:24 32.47653 126.23292 35148 ft 507 kts 14°
2026-05-05 14:24 32.54291 126.26131 35145 ft 508 kts 13°
2026-05-05 14:25 32.60958 126.28985 35180 ft 511 kts 14°
2026-05-05 14:25 32.66495 126.31364 35155 ft 508 kts 14°